CW2640 Weather Reports


Display with metric or nautical units.
time (UTC)temp
F
wind
direction
speed
MPH
gust
MPH
rain 1hr
in
rain 24hr
in
rain mn
in
humidity
%
barometer
mb
20260903221301 91 90 0.0 0.0 0.00 0.00 0.00 74 1014.6
20260903214301 92 86 0.0 0.0 0.00 0.00 0.00 68 1014.5
20260903211257 96 80 0.0 0.0 0.00 0.00 0.00 55 1014.3
20260903204256 98 80 0.0 0.0 0.00 0.00 0.00 51 1014.6
20260903201254 98 80 0.0 0.0 0.00 0.00 0.00 52 1015.1
20260903194252 97 80 0.0 0.0 0.00 0.00 0.00 54 1015.5
20260903191250 98 80 0.0 0.0 0.00 0.00 0.00 52 1015.9
20260903184248 98 80 0.0 0.0 0.00 0.00 0.00 52 1016.2
20260903181243 97 80 0.0 0.0 0.00 0.00 0.00 51 1016.6
20260903174238 97 80 0.0 0.0 0.00 0.00 0.00 54 1016.8
20260903171233 96 80 0.0 0.0 0.00 0.00 0.00 56 1017.4
20260903164229 96 80 0.0 0.0 0.00 0.00 0.00 59 1017.8
20260903161225 95 80 0.0 0.0 0.00 0.00 0.00 61 1018.1
20260903154222 94 80 0.0 0.0 0.00 0.00 0.00 70 1018.2
20260903151217 91 80 0.0 0.0 0.00 0.00 0.00 73 1018.0
20260903144215 90 80 0.0 0.0 0.00 0.00 0.00 74 1018.1
20260903141213 87 80 0.0 0.0 0.00 0.00 0.00 81 1017.9
20260903134212 82 80 0.0 0.0 0.00 0.00 0.00 89 1018.5
20260903131212 78 80 0.0 0.0 0.00 0.00 0.00 98 1018.3
20260903124208 75 80 0.0 0.0 0.00 0.00 0.00 99 1018.2
20260903121206 74 80 0.0 0.0 0.00 0.00 0.00 99 1018.0
20260903114201 73 80 0.0 0.0 0.00 0.00 0.00 99 1017.7
20260903111202 73 80 0.0 0.0 0.00 0.00 0.00 99 1017.5
20260903104201 73 80 0.0 0.0 0.00 0.00 0.00 99 1017.4
20260903101200 74 80 0.0 0.0 0.00 0.00 0.00 99 1017.1
20260903094200 74 80 0.0 0.0 0.00 0.00 0.00 99 1017.2
20260903091155 74 80 0.0 0.0 0.00 0.00 0.00 99 1016.8
20260903084155 75 80 0.0 0.0 0.00 0.00 0.00 99 1016.9
20260903081155 75 80 0.0 0.0 0.00 0.00 0.00 99 1016.7
20260903074154 75 80 0.0 0.0 0.00 0.00 0.00 99 1016.8
20260903071151 75 80 0.0 0.0 0.00 0.00 0.00 99 1016.8
20260903064147 76 80 0.0 0.0 0.00 0.00 0.00 99 1016.9
20260903061146 76 81 0.0 0.0 0.00 0.00 0.00 99 1017.0
20260903054147 77 86 0.0 0.0 0.00 0.00 0.00 98 1017.2
20260903051143 77 93 0.0 0.0 0.00 0.00 0.00 97 1017.2
20260903044142 78 96 0.0 0.0 0.00 0.00 0.00 96 1017.0
20260903041143 78 101 0.0 0.0 0.00 0.00 0.00 94 1017.0
20260903034142 79 105 0.0 0.0 0.00 0.00 0.00 92 1017.4
20260903031141 80 105 0.0 0.0 0.00 0.00 0.00 91 1017.2
20260903024141 80 105 0.0 0.0 0.00 0.00 0.00 90 1017.2
20260903021137 81 105 0.0 0.0 0.00 0.00 0.00 89 1017.0
20260903014135 81 107 0.0 0.0 0.00 0.00 0.00 87 1016.9
20260903011134 82 108 0.0 0.0 0.00 0.00 0.00 85 1016.4
20260903004131 84 104 0.0 0.0 0.00 0.00 0.00 83 1016.3
20260903001130 85 101 0.0 0.0 0.00 0.00 0.00 80 1016.4
20260902234130 88 98 0.0 0.0 0.00 0.00 0.00 71 1016.2
20260902231130 91 92 0.0 0.0 0.00 0.00 0.00 63 1016.3
20260902224125 94 84 0.0 0.0 0.00 0.00 0.00 57 1016.2